This is the latest recevied weather packets stored in our database for station/object N7ZAP. If no packets are shown the sender has not sent any weather packets the latest 10 day(s).
| Time | Temp. | Humidity | Pressure | Rain* | Wind** | Luminosity | Snow |
|---|---|---|---|---|---|---|---|
| 1788016987 | 28.89° C | 31% | 1024.3 hPa | 0 mm | - | - | - |
| 1788016686 | 28.89° C | 32% | 1024.3 hPa | 0 mm | - | - | - |
| 1788016384 | 28.33° C | 33% | 1024.5 hPa | 0 mm | - | - | - |
| 1788016084 | 27.78° C | 33% | 1024.3 hPa | 0 mm | - | - | - |
| 1788015782 | 27.78° C | 34% | 1024.2 hPa | 0 mm | - | - | - |
| 1788015478 | 27.22° C | 34% | 1024.3 hPa | 0 mm | - | - | - |
| 1788015173 | 26.67° C | 34% | 1024.3 hPa | 0 mm | - | - | - |
| 1788014871 | 26.67° C | 35% | 1024.1 hPa | 0 mm | - | - | - |
| 1788014566 | 26.11° C | 35% | 1024.6 hPa | 0 mm | - | - | - |
| 1788014261 | 26.11° C | 35% | 1024.6 hPa | 0 mm | - | - | - |
| 1788013956 | 25.56° C | 36% | 1024.7 hPa | 0 mm | - | - | - |
| 1788013651 | 24.44° C | 38% | 1024.6 hPa | 0 mm | - | - | - |
| 1788013345 | 23.89° C | 40% | 1024.2 hPa | 0 mm | - | - | - |
| 1788013045 | 23.33° C | 41% | 1024.6 hPa | 0 mm | - | - | - |
| 1788012744 | 23.33° C | 41% | 1024.5 hPa | 0 mm | - | - | - |
| 1788012447 | 22.78° C | 42% | 1024.5 hPa | 0 mm | - | - | - |
| 1788012139 | 22.78° C | 43% | 1024.5 hPa | 0 mm | - | - | - |
| 1788011839 | 22.22° C | 43% | 1024.6 hPa | 0 mm | - | - | - |
| 1788011538 | 21.67° C | 44% | 1024.5 hPa | 0 mm | - | - | - |
| 1788011233 | 21.11° C | 45% | 1024.5 hPa | 0 mm | - | - | - |
| 1788010932 | 21.11° C | 46% | 1024 hPa | 0 mm | - | - | - |
| 1788010628 | 20.56° C | 47% | 1023.9 hPa | 0 mm | - | - | - |
| 1788010327 | 20° C | 49% | 1024.1 hPa | 0 mm | - | - | - |
| 1788010026 | 20° C | 51% | 1024 hPa | 0 mm | - | - | - |
| 1788009726 | 20° C | 52% | 1024 hPa | 0 mm | - | - | - |
* Rain latest hour (hover to see other rain measurements)
** Current wind speed in m/s (hover to see current wind gust speed)